Regional Weather Roundup
Issued by NWS Jackson, KY

Home | Current Version | Previous Version | Graphics & Text | Print | Product List | Glossary On
Versions: 1 2 3 4 5 6 7 8 9 10 11 12 13 14 15 16 17 18 19 20 21 22 23 24 25 26 27 28 29 30 31 32 33 34 35 36 37 38 39 40 41 42 43 44 45 46 47 48 49 50
000
ASUS43 KJKL 250805
RWRJKL

EAST KENTUCKY HOURLY WEATHER ROUNDUP
NATIONAL WEATHER SERVICE JACKSON KY
400 AM EDT SAT OCT 25 2014

NOTE: "FAIR" INDICATES FEW OR NO CLOUDS BELOW 12,000 FEET WITH
NO SIGNIFICANT WEATHER AND/OR OBSTRUCTIONS TO VISIBILITY.

* THESE REPORTS ARE NOT UNDER NWS QUALITY CONTROL AND MAY NOT
  REPORT WEATHER SUCH AS PRECIPITATION AND FOG.

KYZ079-080-083-085-087-088-110-112-115-119-120-250900
...EASTERN KENTUCKY...

CITY           SKY/WX    TMP DP  RH WIND       PRES   REMARKS
JACKSON        CLEAR     45  41  86 CALM      30.06F
LONDON         CLEAR     42  38  85 CALM      30.07F
SOMERSET*      CLEAR     41  41 100 CALM      30.09F
MONTICELLO*    CLEAR     40  39  96 CALM      30.10S FOG
WILLIAMSBURG*  CLEAR     39  39 100 CALM      30.08F
MIDDLESBORO*   MOCLDY    37  37  99 CALM      30.10F
HARLAN APT*    CLOUDY    37  37 100 CALM      30.09F VSB<1/4
BLACK MTN*       N/A     43  39  87 NE2         N/A
PIKEVILLE APT* CLEAR     43  41  93 S5        30.06F
BIG SANDY*     SUNNY     44  42  91 SW5       30.06F
MOREHEAD APT*  PTSUNNY   43  41  93 S5        30.07F
$$

KYZ035-036-041-042-044-050-067-078-099-250900
...CENTRAL KENTUCKY...

CITY           SKY/WX    TMP DP  RH WIND       PRES   REMARKS
MT STERLING*   CLEAR     43  41  93 SW6       30.07F
FLEMING/MASON* CLEAR     45  40  85 SW5       30.06R
DANVILLE*      CLEAR     43  39  87 S3        30.07S
RICHMOND*      CLEAR     41  39  93 CALM      30.06F
LEXINGTON      CLEAR     48  40  73 S5        30.06S
FRANKFORT      CLEAR     42  39  89 N3        30.05R
$$

KYZ091>093-OHZ055-061-077-WVZ005-015-034-035-042-250900
...SOUTHERN OHIO/WEST VIRGINIA...

CITY           SKY/WX    TMP DP  RH WIND       PRES   REMARKS
COVINGTON      MOCLDY    47  42  83 S5        30.03S
COLUMBUS       MOCLDY    46  38  73 CALM      30.00F
DAYTON         CLOUDY    52  46  80 SW9       30.00F
WILMINGTON     CLEAR     45  39  79 SW6       30.01F
HUNTINGTON     CLEAR     43  42  97 SW5       30.04F
CHARLESTON     CLEAR     38  37  97 CALM      30.04F FOG
PINEVILLE*     FOG       39  39 100 MISG      30.12F VSB 1/4
BECKLEY        CLEAR     38  35  89 S5        30.05F WCI  34
BLUEFIELD      CLEAR     41  36  82 W8        30.07F
$$

VAZ002-007-008-TNZ017-027-036-066-071-250900
...SOUTHWEST VIRGINIA/EAST TENNESSEE...

CITY           SKY/WX    TMP DP  RH WIND       PRES   REMARKS
WISE*          CLEAR     43  36  75 SW3       30.08F
JONESVILLE*    SUNNY     34  34 100 CALM      30.10F
ABINGDON*      CLEAR     38  37  94 CALM      30.08S
BRISTOL        CLEAR     37  36  96 CALM      30.09S
OAK RIDGE      PTCLDY    43  40  89 CALM      30.10S
CROSSVILLE     CLEAR     43  38  82 CALM      30.09F
NASHVILLE      PTCLDY    47  45  93 S3        30.09S
$$

...KEY TO REMARKS...
VSB - VISIBILITY IN MILES
WCI - WIND CHILL INDEX
HX  - HEAT INDEX

$$



USA.gov is the U.S. government's official web portal to all federal, state and local government web resources and services.